Location: Newark
(49.8969°N, 3.3422°E)
Time: 21:00:54
(UTC+00:00)

Vanguard 2 Rocket - Pass Details

Date: 22 January 2020
Orbit: 553 x 3327 km, 32.9° (Epoch: 26 February)

Event Time Altitude Azimuth Distance (km) Brightness Sun altitude
Rises 06:08:06 0° 218° (SW) 3,158 9.5 -13.4°
Reaches altitude 10° 06:11:02 10° 196° (SSW) 2,514 9.2 -13.0°
Maximum altitude 06:14:45 17° 157° (SSE) 2,440 9.6 -12.4°
Drops below altitude 10° 06:19:38 10° 121° (ESE) 3,479 11.3 -11.6°
Sets 06:24:52 0° 105° (ESE) 5,065 13.0 -10.8°
